Home   Weather   Germantown   Past weeks

Flag for USA Past Weather in Germantown, Maryland, USA — Yesterday and Last 2 Weeks

Now
77 °F

Partly sunny.


Feels Like: 79 °F
Forecast: 63 / 81 °F
Wind: 6 mph from North

Location: Frederick Municipal Airport

Current Time: Jul 25, 2017 at 8:54:55 pm

Latest Report: Jul 25, 2017 at 7:50 pm


Visibility: 10 mi

Pressure: 30.19 "Hg

Humidity: 69%

Dew Point: 66 °F

Location of GermantownLocation

Past Weather in Germantown — Graph

°F

Germantown Temperature Yesterday

Maximum temperature yesterday: 90 °F (at 2:54 pm)
Minimum temperature yesterday: 73 °F (at 1:45 am)
Average temperature yesterday: 78 °F

High & Low Weather Summary for the Past Weeks

 TemperatureHumidityPressure
High95 °F (Jul 19, 4:47 pm)100% (Jul 12, 4:45 am)30.18 "Hg (Jul 12, 4:45 am)
Low61 °F (Jul 16, 5:25 am)20% (Jul 19, 4:47 pm)29.76 "Hg (Jul 24, 4:00 am)
Average77 °F79%30.00 "Hg
* Reported Jul 10 6:49 pm — Jul 25 6:49 pm, Germantown. Weather by CustomWeather, © 2017

Note: Actual official high and low records may vary slightly from our data, if they occured in-between our weather recording intervals... More about our weather records

Advertising

Germantown Weather History for the Previous 24 Hours

Scroll right to see more
 ConditionsComfort  
Time TempWeatherWind HumidityBarometerVisibility
6:49 pm
Tue, Jul 25
79 °FBroken clouds.5 mph51%30.18 "Hg10 mi
5:51 pm79 °FOvercast.7 mph51%30.17 "Hg10 mi
4:55 pm79 °FBroken clouds.7 mph48%30.17 "Hg10 mi
3:49 pm81 °FOvercast.12 mph45%30.16 "Hg10 mi
2:47 pm75 °FMostly cloudy.7 mph54%30.16 "Hg10 mi
1:47 pm79 °FMostly cloudy.5 mph48%30.16 "Hg10 mi
12:47 pm77 °FMostly cloudy.No wind51%30.15 "Hg10 mi
11:47 am75 °FOvercast.No wind54%30.15 "Hg10 mi
9:47 am75 °FOvercast.5 mph54%30.12 "Hg10 mi
8:48 am73 °FSunny.3 mph53%30.11 "Hg10 mi
7:47 am72 °FSunny.No wind57%30.09 "Hg10 mi
6:50 am68 °FSunny.7 mph60%30.08 "Hg10 mi
6:47 am68 °FSunny.7 mph64%30.07 "Hg10 mi
6:25 am68 °FSunny.10 mph60%30.07 "Hg10 mi
6:05 am66 °FSunny.7 mph64%30.06 "Hg10 mi
5:45 am64 °FClear.5 mph68%30.06 "Hg10 mi
5:25 am64 °FClear.No wind68%30.05 "Hg10 mi
5:05 am68 °FClear.No wind60%30.05 "Hg10 mi
4:45 am68 °FClear.6 mph60%30.04 "Hg10 mi
4:25 am68 °FClear.No wind60%30.03 "Hg10 mi
4:05 am68 °FClear.6 mph60%30.03 "Hg10 mi
3:25 am70 °FClear.3 mph60%30.02 "Hg10 mi
2:45 am72 °FClear.9 mph57%30.02 "Hg10 mi
2:25 am72 °FClear.9 mph57%30.01 "Hg10 mi
2:05 am73 °FClear.9 mph57%30.00 "Hg10 mi
1:45 am73 °FClear.7 mph57%30.00 "Hg10 mi
1:25 am73 °FClear.9 mph57%29.99 "Hg10 mi
1:05 am73 °FClear.9 mph61%29.99 "Hg10 mi
12:45 am75 °FClear.7 mph57%29.99 "Hg10 mi
12:25 am75 °FClear.6 mph61%29.98 "Hg10 mi
12:05 am77 °FClear.5 mph61%29.96 "Hg10 mi
11:45 pm
Mon, Jul 24
77 °FClear.6 mph61%29.95 "Hg10 mi
11:25 pm77 °FClear.7 mph65%29.94 "Hg10 mi
10:45 pm73 °FPassing clouds.6 mph100%29.93 "Hg10 mi
10:25 pm73 °FPassing clouds.No wind100%29.93 "Hg10 mi
10:05 pm73 °FOvercast.No wind100%29.92 "Hg10 mi
9:45 pm75 °FPassing clouds.No wind94%29.91 "Hg10 mi
9:25 pm75 °FPassing clouds.No wind94%29.90 "Hg10 mi
9:05 pm77 °FPassing clouds.No wind89%29.89 "Hg10 mi
Weather by CustomWeather, © 2017

See weather overviewHow to use our weather pages